Погода в Красноярке

Россия / Алтайский край     52°13′35″N   83°28′29″E
темп.,
°C
ветер,
м/с
пор.,
м/с
влажн.,
%
обл.,
%
осадки,
мм/ч
давл.,
гПа
погр.,
м
18 октября, пн
пн1801:00+4зюз34755 0.0 102770
04:00+3зюз34785 0.0 102759
07:00+2зюз33795 0.0 102833
10:00+4зюз24667 0.0 1028158
13:00+9зюз334980 0.0 1028566
16:00+10з22445 0.0 1027662
19:00+6зсз00570 0.0 102810
22:00+5юв11620 0.0 102810
19 октября, вт
вт1901:00+4в11670 0.0 102810
04:00+2в22742 0.0 102810
07:00+2в33825 0.0 102827
10:00+4всв35755 0.0 1028149
13:00+9всв34565 0.0 1026451
16:00+11всв34505 0.0 1025590
19:00+7всв34705 0.0 102538
22:00+5всв347962 0.0 102449
20 октября, ср
ср2001:00+4в338519 0.0 102432
04:00+3в228159 0.0 102313
07:00+3вюв127282 0.0 102210
10:00+6вюв225765 0.0 102271
13:00+12вюв223744 0.0 1020249
16:00+14в23355 0.0 1019279
19:00+9вюв22500 0.0 101911
22:00+8вюв22520 0.0 101810
21 октября, чт
чт2101:00+7юв22465 0.0 101810
04:00+6юв22435 0.0 101710
07:00+6вюв224468 0.0 101710
10:00+9вюв113820 0.0 101632
13:00+15ю122775 0.0 1015252
16:00+17ююз143112 0.0 1014210
19:00+12ююз114031 0.0 101410
22:00+11ююв2240100 0.0 101411
22 октября, пт
пт2201:00+11ююв2240100 0.0 101415
04:00+10юв114150 0.0 101410
07:00+9ююв114085 0.0 101510
10:00+11ююз223677 0.0 101639
13:00+14зюз71136100 0.0 1016598
16:00+14з4650100 0.0 1017741
19:00+11зсз3668100 0.0 1019149
22:00+9з3677100 0.0 1021221